Voltar ao catálogo

GEESAT 3-05

AtivoCiênciaLEO
NORAD 61015·PAYLOAD·🇨🇳 China

Lançado Sep 5, 2024 de Taiyuan Satellite Launch Center

Loading…

Próximas Passagens (próximas 24 horas)

TLE

AtualizadoSource: Space-Track

Época: Sep 14, 2026, 21:15 UTC

1 61015U 24159E   26257.88575097  .00001649  00000-0  22048-3 0  9994
2 61015  50.0041  27.2095 0012388  40.4659 319.7199 14.84478708110103

Acompanhe GEESAT 3-05 em tempo real com AllMySat

Download on the App Store